Weather in Whangamata

New Zealand     37°12′25″S   175°52′16″E
temp.,
°C
wind,
m/s
gust,
m/s
humid.,
%
clouds,
%
prec.,
mm/h
press.,
hPa
HPBL,
m
12 april, mon
mon1200:00+15ese01989 0.0 101313
03:00+15ese119917 0.0 101214
06:00+16ese119994 0.0 101230
09:00+18e129796 0.1 1013126
12:00+23ene237577 0.3 1012830
15:00+23ne237689 0.6 1011630
18:00+18ene119979 1.3 101132
21:00+18nne0197100 0.1 101214
13 april, tue
tue1300:00+18nnw1198100 0.5 101116
03:00+17w0099100 0.1 101016
06:00+17sw119992 0.3 100935
09:00+18w139998 0.2 1010204
12:00+22w356132 0.3 10081184
15:00+21w465832 0.1 10071426
18:00+17w38720 0.1 1007766
21:00+13w289735 0.1 1008353
14 april, wed
wed1400:00+13w210969 0.2 1008556
03:00+12w2109510 0.1 1007488
06:00+10wnw119813 0.1 100736
09:00+16wnw27725 0.0 1007947
12:00+18nw376471 0.4 10051427
15:00+13wsw299851 11.8 1003524
18:00+11w129812 12.6 100445
21:00+11w139928 0.1 100665
15 april, thu
thu1500:00+10w259939 0.1 1007154
03:00+10w2109815 0.0 1007367
06:00+10wsw211968 0.0 1008452
09:00+14wsw31178100 0.0 10101180
12:00+18wsw4105997 0.0 10081438
15:00+20wsw4105419 0.0 10071724
18:00+15w3108111 0.1 1009974
21:00+14w2109369 0.0 1010540
16 april, fri
fri1600:00+14w2119893 0.3 1009577
03:00+15w2109698 0.1 1008750
06:00+15w28959 0.5 1009568
09:00+16wsw38874 0.0 1011820
12:00+20w49520 0.1 10101636
15:00+21w48496 0.0 10081664
18:00+16w3977100 0.0 1010949
21:00+14w2109294 0.0 1011585